STARLINK-32342

Last updated on Mon Oct 21 2024 00:02:04 GMT+0000 (Coordinated Universal Time)

1 61217U 24171T 24294.58334491 .00063216 00000+0 18779-2 0 9991 2 61217 53.1591 150.4613 0001154 93.6878 77.2070 15.34206415 6005

Satellite not in orbit

STARLINK-32342